EW1690 Weather Reports


time (UTC)temp
F
wind
direction
speed
knots
gust
knots
rain 1hr
in
rain 24hr
in
rain mn
in
humidity
%
barometer
mb
20260505063547 32 338 0.0 0.9 0.00 0.01 0.00 94 1005.1
20260505063103 32 338 0.0 0.9 0.00 0.01 0.00 94 1005.1
20260505062541 32 338 0.0 1.7 0.00 0.01 0.00 94 1005.1
20260505062039 32 342 0.0 2.6 0.00 0.01 0.00 94 1004.9
20260505061603 32 349 0.0 3.5 0.00 0.01 0.00 93 1005.1
20260505061033 32 350 0.0 3.5 0.00 0.01 0.00 93 1004.9
20260505060534 32 355 0.0 3.5 0.00 0.01 0.00 93 1004.9
20260505060029 32 342 0.0 3.5 0.00 0.01 0.00 93 1004.7
20260505055527 32 329 0.0 2.6 0.00 0.01 0.01 93 1004.7
20260505055026 32 299 0.0 2.6 0.00 0.01 0.01 93 1004.6
20260505054522 32 315 0.0 2.6 0.00 0.01 0.01 93 1004.7
20260505054021 32 330 0.9 3.5 0.00 0.01 0.01 93 1004.6
20260505053517 32 344 0.9 3.5 0.00 0.01 0.01 93 1004.7
20260505053014 32 338 0.9 3.5 0.00 0.01 0.01 92 1004.9
20260505052512 32 346 0.0 3.5 0.00 0.01 0.01 92 1005.0
20260505051520 32 324 0.9 3.5 0.00 0.01 0.01 92 1004.8
20260505051005 32 325 0.9 5.2 0.00 0.01 0.01 92 1004.9
20260505050502 32 317 0.9 5.2 0.00 0.01 0.01 91 1004.8
20260505041543 35 19 0.0 2.6 0.00 0.01 0.01 88 1004.5
20260505041035 35 19 0.0 2.6 0.00 0.01 0.01 88 1004.4
20260505040538 35 16 0.0 0.9 0.00 0.01 0.01 88 1004.3
20260505040036 35 28 0.0 0.9 0.00 0.01 0.01 88 1004.3
20260505035535 35 28 0.0 1.7 0.00 0.01 0.01 88 1004.3
20260505035035 35 22 0.0 1.7 0.00 0.01 0.01 88 1004.5
20260505034535 35 11 0.0 2.6 0.00 0.01 0.01 88 1004.4
20260505034035 35 344 0.0 5.2 0.00 0.01 0.01 87 1004.4
20260505033535 35 348 0.9 5.2 0.00 0.01 0.01 87 1004.3
20260505033034 35 19 1.7 3.5 0.00 0.01 0.01 88 1004.3
20260505032535 35 127 0.9 1.7 0.00 0.01 0.01 88 1004.2
20260505031529 36 128 0.0 0.9 0.00 0.01 0.01 88 1004.0
20260505031027 36 128 0.0 0.9 0.00 0.01 0.01 87 1003.8
20260505030525 36 128 0.0 0.9 0.00 0.01 0.01 87 1003.4
20260505030023 36 128 0.0 5.2 0.00 0.01 0.01 86 1003.2
20260505025521 36 128 0.9 5.2 0.00 0.01 0.01 86 1003.3
20260505025017 36 121 2.6 5.2 0.00 0.01 0.01 85 1003.3
20260505024514 36 122 0.9 4.3 0.00 0.01 0.01 82 1003.3
20260505024012 36 213 0.0 0.9 0.00 0.01 0.01 82 1003.0
20260505023509 36 213 0.0 1.7 0.00 0.01 0.01 81 1002.9
20260505023006 36 213 0.0 1.7 0.00 0.01 0.01 81 1002.8
20260505022505 37 215 0.0 1.7 0.01 0.01 0.01 81 1002.7
20260505022001 37 217 0.0 0.0 0.01 0.01 0.01 80 1002.8
20260505021601 37 217 0.0 0.9 0.01 0.01 0.01 79 1002.7
20260505021158 37 217 0.0 0.9 0.01 0.01 0.01 78 1002.6
20260505020554 37 217 0.0 0.0 0.01 0.01 0.01 78 1002.5
20260505020153 38 217 0.0 0.9 0.01 0.01 0.01 77 1002.6
20260505015551 38 217 0.0 4.3 0.01 0.01 0.01 77 1002.5
20260505015052 38 166 1.7 5.2 0.01 0.01 0.01 76 1002.3
20260505014551 37 168 0.9 3.5 0.01 0.01 0.01 76 1002.5
20260505013541 37 279 4.3 12.2 0.01 0.01 0.01 81 1002.6
20260505013039 38 274 5.2 13.0 0.01 0.01 0.01 79 1002.9
20260505012534 39 291 7.0 13.0 0.00 0.00 0.00 75 1002.7
20260505012032 39 180 0.9 7.0 0.00 0.00 0.00 73 1002.4
20260505011532 40 246 1.7 10.4 0.00 0.00 0.00 71 1002.5
20260505011027 41 184 1.7 6.1 0.00 0.00 0.00 71 1002.7
20260505010524 42 163 0.0 4.3 0.00 0.00 0.00 70 1002.5
20260505010023 42 134 2.6 4.3 0.00 0.00 0.00 71 1002.1
20260505005520 42 132 1.7 7.0 0.00 0.00 0.00 68 1002.1
20260505005118 43 111 0.9 7.0 0.00 0.00 0.00 67 1002.0
20260505004515 44 86 0.9 4.3 0.00 0.00 0.00 63 1001.9
20260505004012 45 44 0.0 4.3 0.00 0.00 0.00 54 1001.9
20260505003511 45 43 0.9 4.3 0.00 0.00 0.00 54 1001.8
20260505003017 45 39 0.0 3.5 0.00 0.00 0.00 54 1002.0
20260505002605 45 40 0.9 2.6 0.00 0.00 0.00 55 1002.0
20260505002002 45 62 0.0 1.7 0.00 0.00 0.00 55 1002.1
20260505001605 45 67 0.0 3.5 0.00 0.00 0.00 55 1002.1
20260505001057 45 42 0.0 3.5 0.00 0.00 0.00 55 1002.1
20260505000558 45 26 0.0 3.5 0.00 0.00 0.00 55 1002.2
20260505000055 45 360 0.9 4.3 0.00 0.00 0.00 55 1002.0
20260504235550 45 40 0.0 5.2 0.00 0.00 0.00 56 1002.3
20260504235048 46 16 0.9 5.2 0.00 0.00 0.00 55 1002.4
20260504234545 46 330 0.9 5.2 0.00 0.00 0.00 56 1002.4
20260504234042 46 331 1.7 8.7 0.00 0.00 0.00 56 1002.4
20260504233541 46 305 3.5 9.6 0.00 0.00 0.00 57 1002.3
20260504233139 46 333 3.5 12.2 0.00 0.00 0.00 58 1002.4
20260504232636 46 291 4.3 12.2 0.00 0.00 0.00 58 1002.3
20260504232034 45 317 5.2 12.2 0.00 0.00 0.00 57 1002.3
20260504231541 44 311 5.2 13.9 0.00 0.00 0.00 57 1002.3
20260504231033 44 288 8.7 13.9 0.00 0.00 0.00 57 1002.1
20260504230531 46 298 7.8 21.7 0.00 0.00 0.00 53 1002.0
20260504230029 47 246 8.7 21.7 0.00 0.00 0.00 48 1002.1
20260504225526 49 324 4.3 7.8 0.00 0.00 0.00 39 1001.6
20260504225027 50 313 2.6 7.0 0.00 0.00 0.00 37 1001.5
20260504224621 50 282 1.7 10.4 0.00 0.00 0.00 36 1001.4
20260504224020 51 314 3.5 10.4 0.00 0.00 0.00 36 1001.4
20260504223517 51 272 2.6 10.4 0.00 0.00 0.00 36 1001.4
20260504223014 52 254 4.3 10.4 0.00 0.00 0.00 32 1001.3
20260504222512 53 306 3.5 9.6 0.00 0.00 0.00 35 1001.5
20260504222009 53 279 2.6 11.3 0.00 0.00 0.00 33 1001.5
20260504221507 52 284 4.3 8.7 0.00 0.00 0.00 34 1001.4
20260504221003 53 316 3.5 7.8 0.00 0.00 0.00 32 1001.6
20260504220601 52 275 3.5 9.6 0.00 0.00 0.00 33 1001.8
20260504220200 52 277 4.3 10.4 0.00 0.00 0.00 34 1001.8
20260504215556 53 296 2.6 10.4 0.00 0.00 0.00 30 1001.9
20260504215054 53 276 1.7 9.6 0.00 0.00 0.00 32 1002.0
20260504214556 53 286 3.5 9.6 0.00 0.00 0.00 32 1001.9
20260504214049 53 281 3.5 7.8 0.00 0.00 0.00 32 1001.9
20260504213546 53 275 1.7 8.7 0.00 0.00 0.00 34 1002.2
20260504213043 52 319 3.5 9.6 0.00 0.00 0.00 36 1002.2
20260504212541 53 294 2.6 9.6 0.00 0.00 0.00 32 1002.3
20260504212041 53 266 0.0 8.7 0.00 0.00 0.00 34 1002.2
20260504211033 52 321 0.9 8.7 0.00 0.00 0.00 33 1002.4
20260504210536 53 275 3.5 7.8 0.00 0.00 0.00 33 1002.5
20260504210035 52 293 0.9 7.8 0.00 0.00 0.00 34 1002.7
20260504205529 51 311 0.9 7.0 0.00 0.00 0.00 34 1002.7
20260504205025 51 202 0.9 9.6 0.00 0.00 0.00 33 1002.9
20260504204523 51 290 3.5 9.6 0.00 0.00 0.00 34 1003.0
20260504204027 50 319 1.7 11.3 0.00 0.00 0.00 36 1003.0
20260504203519 51 319 4.3 13.9 0.00 0.00 0.00 35 1002.9
20260504203117 51 306 7.0 13.9 0.00 0.00 0.00 33 1002.9
20260504202514 51 290 3.5 15.6 0.00 0.00 0.00 37 1003.0
20260504202011 51 317 7.0 14.8 0.00 0.00 0.00 37 1002.9
20260504201609 50 289 6.1 13.9 0.00 0.00 0.00 37 1003.0
20260504201009 51 284 4.3 9.6 0.00 0.00 0.00 39 1003.1
20260504200604 51 284 4.3 10.4 0.00 0.00 0.00 30 1003.1
20260504195558 52 304 1.7 7.8 0.00 0.00 0.00 28 1003.0
20260504195056 52 337 2.6 9.6 0.00 0.00 0.00 28 1002.9
20260504194602 53 296 4.3 9.6 0.00 0.00 0.00 29 1003.1
20260504194053 53 331 3.5 7.0 0.00 0.00 0.00 29 1003.0
20260504193550 54 5 2.6 11.3 0.00 0.00 0.00 29 1003.0
20260504192545 55 319 3.5 13.0 0.00 0.00 0.00 29 1003.2
20260504192043 54 344 6.1 13.0 0.00 0.00 0.00 29 1003.3
20260504191542 54 313 4.3 12.2 0.00 0.00 0.00 29 1003.3
20260504191036 53 342 4.3 10.4 0.00 0.00 0.00 32 1003.3
20260504190534 52 339 5.2 19.1 0.00 0.00 0.00 34 1003.5
20260504190035 51 294 6.1 19.1 0.00 0.00 0.00 35 1003.5
20260504185532 50 312 6.1 15.6 0.00 0.00 0.00 36 1003.7
20260504185026 50 323 6.1 15.6 0.00 0.00 0.00 35 1003.7
20260504184524 52 296 5.2 13.9 0.00 0.00 0.00 33 1003.8
20260504184020 51 330 6.1 13.9 0.00 0.00 0.00 33 1003.8
20260504183517 51 306 5.2 11.3 0.00 0.00 0.00 33 1004.0
20260504183014 52 324 4.3 11.3 0.00 0.00 0.00 35 1004.1
20260504182516 51 323 2.6 13.0 0.00 0.00 0.00 38 1004.2
20260504181604 50 355 6.1 18.2 0.00 0.00 0.00 39 1004.3
20260504181001 49 271 7.0 17.4 0.00 0.00 0.00 34 1004.3
20260504180600 48 293 10.4 20.9 0.00 0.00 0.00 34 1004.3
20260504180056 48 287 9.6 20.9 0.00 0.00 0.00 35 1004.2
20260504175556 48 299 7.8 17.4 0.00 0.00 0.00 35 1004.3
20260504175052 49 325 2.6 11.3 0.00 0.00 0.00 35 1004.2
20260504174550 49 313 4.3 13.9 0.00 0.00 0.00 37 1004.4
20260504174046 49 290 7.8 13.9 0.00 0.00 0.00 36 1004.4
20260504173645 49 326 7.0 13.0 0.00 0.00 0.00 33 1004.2
20260504173041 48 257 7.0 14.8 0.00 0.00 0.00 36 1004.3
20260504172538 48 292 6.1 17.4 0.00 0.00 0.00 36 1004.4
20260504172036 48 267 7.8 17.4 0.00 0.00 0.00 36 1004.5
20260504171534 49 289 7.8 12.2 0.00 0.00 0.00 36 1004.4
20260504171033 49 293 6.1 16.5 0.00 0.00 0.00 35 1004.5
20260504170530 50 300 7.0 16.5 0.00 0.00 0.00 36 1004.5
20260504160153 47 257 0.9 7.8 0.00 0.00 0.00 42 1005.1
20260504151023 41 275 4.3 12.2 0.00 0.00 0.00 53 1006.3
20260504150621 41 288 7.0 16.5 0.00 0.00 0.00 54 1006.5
20260504141049 39 226 0.0 2.6 0.00 0.00 0.00 54 1006.4
20260504130516 32 159 0.0 2.6 0.00 0.00 0.00 61 1005.9
20260504110554 32 171 0.0 2.6 0.00 0.00 0.00 60 1005.6
20260504100549 34 171 0.0 2.6 0.00 0.00 0.00 55 1005.6
20260504081534 35 224 0.0 0.0 0.00 0.00 0.00 51 1006.6
20260504081032 35 224 0.0 0.0 0.00 0.00 0.00 52 1006.7
20260504080531 34 224 0.0 0.0 0.00 0.00 0.00 53 1006.7